contact:dominique.lefevre@mio.osupytheas.fr, maurice.libes@osupytheas.fr, didier.mallarino@osupytheas.fr
Project:EMSO http://www.emso-fr.org/EMSO-France
Depth: 2436.0 m
Title:EMSO Ligure Ouest : Data MII capteur AQUADOPP
Date,Latitude,Longitude,X_East,Y_North,Z_Up,Amplitude_X,Amplitude_Y,Amplitude_Z,Batterie,SoundSpeed,Heading,Pitch,Roll,Pressure,TIS,Speed,Direction
, degrees North, degrees East, m.s-1, m.s-1,m.s-1, 1, 1, 1, Volt, m.s-1, degree, degree, degree, dbar, degree_C, m.s-1, degree
2023-03-02T00:04:03,42.805,6.029,0.015,-0.031,-0.025,108.0,106.0,103.0,13.3,1505.2,329.7,-0.8,1.8,2471.229,13.28,0.034,154.2
2023-03-02T00:07:03,42.805,6.029,0.013,-0.038,-0.043,105.0,105.0,103.0,13.3,1505.2,322.9,-0.8,1.8,2471.203,13.28,0.04,161.1
2023-03-02T00:10:03,42.805,6.029,-0.005,-0.04,-0.037,106.0,105.0,104.0,13.4,1505.2,327.4,-0.8,1.8,2471.23,13.28,0.04,187.1
2023-03-02T00:13:03,42.805,6.029,0.03,-0.04,0.0,108.0,105.0,104.0,13.4,1505.2,335.8,-0.8,1.8,2471.242,13.28,0.05,143.1
2023-03-02T00:16:03,42.805,6.029,0.003,-0.038,-0.032,107.0,106.0,104.0,13.3,1505.2,322.7,-0.8,1.8,2471.207,13.28,0.038,175.5
2023-03-02T00:19:03,42.805,6.029,0.013,-0.049,-0.018,106.0,106.0,104.0,13.4,1505.2,331.5,-0.7,1.8,2471.24,13.29,0.05,165.1
2023-03-02T00:22:03,42.805,6.029,0.007,-0.035,-0.029,106.0,105.0,103.0,13.4,1505.2,324.2,-0.8,1.8,2471.234,13.29,0.035,168.7
2023-03-02T00:25:03,42.805,6.029,-0.01,-0.037,-0.032,105.0,104.0,104.0,13.3,1505.2,331.5,-0.8,1.8,2471.248,13.29,0.038,195.1
2023-03-02T00:28:03,42.805,6.029,0.006,-0.036,-0.025,105.0,104.0,104.0,13.3,1505.2,328.8,-0.8,1.8,2471.203,13.29,0.036,170.5
2023-03-02T00:31:03,42.805,6.029,-0.006,-0.027,-0.029,107.0,105.0,104.0,13.3,1505.2,334.7,-0.8,1.8,2471.219,13.29,0.027,192.5
2023-03-02T00:34:03,42.805,6.029,0.021,-0.029,0.0,107.0,106.0,104.0,13.4,1505.2,329.8,-0.8,1.8,2471.241,13.29,0.035,144.1
2023-03-02T00:37:03,42.805,6.029,-0.002,-0.035,-0.021,105.0,105.0,103.0,13.4,1505.2,327.2,-0.8,1.8,2471.251,13.29,0.035,183.3
2023-03-02T00:40:03,42.805,6.029,0.026,-0.025,0.017,105.0,104.0,103.0,13.4,1505.2,333.4,-0.8,1.8,2471.237,13.29,0.036,133.9
2023-03-02T00:43:03,42.805,6.029,0.009,-0.04,-0.049,108.0,105.0,104.0,13.4,1505.2,332.5,-0.8,1.8,2471.195,13.29,0.041,167.3
2023-03-02T00:46:03,42.805,6.029,0.009,-0.038,-0.027,104.0,105.0,104.0,13.3,1505.2,323.1,-0.8,1.8,2471.219,13.29,0.039,166.7
2023-03-02T00:49:03,42.805,6.029,-0.002,-0.041,-0.003,106.0,104.0,103.0,13.4,1505.2,330.2,-0.7,1.8,2471.218,13.29,0.041,182.8
2023-03-02T00:52:03,42.805,6.029,0.001,-0.053,-0.036,106.0,104.0,104.0,13.4,1505.2,324.6,-0.7,1.8,2471.221,13.29,0.053,178.9
2023-03-02T00:55:03,42.805,6.029,0.01,-0.036,-0.011,106.0,105.0,104.0,13.4,1505.2,323.2,-0.8,1.8,2471.235,13.29,0.037,164.5
2023-03-02T00:58:03,42.805,6.029,0.02,-0.043,-0.039,106.0,105.0,104.0,13.3,1505.2,326.8,-0.8,1.8,2471.205,13.29,0.047,155.1
2023-03-02T01:01:03,42.805,6.029,0.04,-0.031,-0.039,106.0,105.0,104.0,13.3,1505.2,332.5,-0.7,1.8,2471.203,13.29,0.05,127.8
2023-03-02T01:04:03,42.805,6.029,-0.021,-0.06,-0.059,106.0,106.0,106.0,13.4,1505.2,327.1,-0.8,1.8,2471.242,13.29,0.063,199.3
2023-03-02T01:07:03,42.805,6.029,0.015,-0.051,-0.042,106.0,104.0,104.0,13.3,1505.2,325.0,-0.8,1.8,2471.231,13.29,0.053,163.6
2023-03-02T01:10:03,42.805,6.029,0.019,-0.036,-0.015,107.0,106.0,103.0,13.4,1505.2,322.9,-0.8,1.8,2471.202,13.29,0.04,152.2
2023-03-02T01:13:03,42.805,6.029,-0.003,-0.022,-0.014,106.0,105.0,105.0,13.3,1505.2,341.2,-0.7,1.8,2471.256,13.29,0.022,187.8
2023-03-02T01:16:03,42.805,6.029,0.0,-0.03,-0.022,107.0,106.0,104.0,13.4,1505.2,337.8,-0.8,1.8,2471.227,13.29,0.03,180.0
2023-03-02T01:19:03,42.805,6.029,-0.004,-0.019,-0.021,106.0,105.0,104.0,13.4,1505.2,333.0,-0.8,1.8,2471.23,13.29,0.019,191.9
2023-03-02T01:22:03,42.805,6.029,0.011,-0.05,-0.028,106.0,105.0,103.0,13.4,1505.2,326.5,-0.8,1.8,2471.245,13.29,0.051,167.6
2023-03-02T01:25:03,42.805,6.029,0.011,-0.032,-0.007,105.0,104.0,104.0,13.3,1505.2,326.5,-0.7,1.8,2471.213,13.29,0.033,161.0
2023-03-02T01:28:03,42.805,6.029,0.02,-0.032,-0.025,107.0,106.0,103.0,13.3,1505.2,323.9,-0.8,1.8,2471.261,13.29,0.037,148.0
2023-03-02T01:31:03,42.805,6.029,0.023,-0.042,-0.028,106.0,106.0,104.0,13.4,1505.2,321.0,-0.7,1.8,2471.23,13.29,0.047,151.3
2023-03-02T01:34:03,42.805,6.029,0.014,-0.042,-0.039,106.0,105.0,103.0,13.3,1505.2,333.0,-0.8,1.8,2471.234,13.29,0.044,161.6
2023-03-02T01:37:03,42.805,6.029,0.015,-0.039,-0.042,107.0,105.0,102.0,13.4,1505.2,323.1,-0.8,1.8,2471.19,13.29,0.041,159.0
2023-03-02T01:40:03,42.805,6.029,0.015,-0.05,-0.031,107.0,105.0,103.0,13.4,1505.2,332.2,-0.7,1.8,2471.246,13.29,0.052,163.3
2023-03-02T01:43:03,42.805,6.029,0.021,-0.03,-0.047,105.0,104.0,104.0,13.4,1505.2,316.7,-0.8,1.8,2471.221,13.29,0.036,145.0
2023-03-02T01:46:03,42.805,6.029,0.029,-0.024,-0.042,106.0,106.0,105.0,13.3,1505.2,319.3,-0.8,1.8,2471.248,13.29,0.037,129.6
2023-03-02T01:49:03,42.805,6.029,0.013,-0.048,-0.032,105.0,104.0,104.0,13.3,1505.2,316.8,-0.8,1.8,2471.235,13.29,0.049,164.8
2023-03-02T01:52:03,42.805,6.029,-0.003,-0.049,-0.016,106.0,106.0,103.0,13.4,1505.2,334.2,-0.8,1.8,2471.256,13.29,0.049,183.5
2023-03-02T01:55:03,42.805,6.029,0.024,-0.045,-0.033,105.0,105.0,105.0,13.4,1505.2,321.6,-0.8,1.8,2471.252,13.29,0.051,151.9
2023-03-02T01:58:03,42.805,6.029,0.029,-0.036,-0.01,107.0,105.0,104.0,13.4,1505.2,340.9,-0.8,1.8,2471.245,13.29,0.046,141.1
2023-03-02T02:04:03,42.805,6.029,0.016,-0.012,-0.028,106.0,105.0,104.0,13.4,1505.2,325.4,-0.7,1.8,2471.289,13.28,0.02,126.9
2023-03-02T02:07:03,42.805,6.029,0.018,-0.027,-0.024,106.0,106.0,104.0,13.4,1505.2,338.2,-0.8,1.8,2471.302,13.28,0.032,146.3
2023-03-02T02:10:03,42.805,6.029,0.023,-0.037,-0.024,106.0,105.0,104.0,13.4,1505.2,325.7,-0.8,1.8,2471.264,13.28,0.043,148.1
2023-03-02T02:13:03,42.805,6.029,0.027,-0.036,-0.023,106.0,106.0,104.0,13.4,1505.2,321.7,-0.8,1.8,2471.266,13.28,0.045,143.1
2023-03-02T02:16:03,42.805,6.029,0.026,-0.05,0.007,107.0,106.0,104.0,13.3,1505.2,330.7,-0.7,1.8,2471.312,13.28,0.056,152.5
2023-03-02T02:19:03,42.805,6.029,0.026,-0.041,-0.011,105.0,105.0,104.0,13.3,1505.2,327.9,-0.8,1.8,2471.32,13.28,0.048,147.6
2023-03-02T02:22:03,42.805,6.029,0.015,-0.05,-0.002,106.0,104.0,104.0,13.4,1505.2,340.0,-0.8,1.8,2471.269,13.29,0.052,163.3
2023-03-02T02:25:03,42.805,6.029,0.018,-0.042,-0.023,107.0,104.0,105.0,13.4,1505.2,324.5,-0.7,1.8,2471.284,13.28,0.045,156.8
2023-03-02T02:28:03,42.805,6.029,0.013,-0.046,-0.038,105.0,106.0,104.0,13.3,1505.2,320.9,-0.8,1.9,2471.276,13.29,0.047,164.2
2023-03-02T02:31:03,42.805,6.029,0.025,-0.052,-0.011,105.0,105.0,104.0,13.3,1505.2,327.5,-0.8,1.8,2471.282,13.29,0.057,154.3
2023-03-02T02:34:03,42.805,6.029,0.006,-0.045,-0.024,105.0,105.0,104.0,13.4,1505.2,333.9,-0.8,1.8,2471.272,13.29,0.045,172.4
2023-03-02T02:37:03,42.805,6.029,0.012,-0.037,-0.025,106.0,106.0,104.0,13.4,1505.2,327.9,-0.8,1.8,2471.273,13.29,0.038,162.0
2023-03-02T02:40:03,42.805,6.029,0.007,-0.041,-0.025,105.0,105.0,104.0,13.3,1505.2,340.6,-0.8,1.8,2471.292,13.29,0.041,170.3
2023-03-02T02:43:03,42.805,6.029,0.022,-0.035,0.0,105.0,105.0,105.0,13.3,1505.2,319.5,-0.8,1.8,2471.29,13.29,0.041,147.8
2023-03-02T02:46:03,42.805,6.029,0.026,-0.034,-0.009,106.0,106.0,104.0,13.3,1505.2,334.3,-0.8,1.8,2471.271,13.29,0.042,142.6
2023-03-02T02:49:03,42.805,6.029,0.02,-0.056,-0.044,105.0,105.0,103.0,13.4,1505.2,322.9,-0.8,1.8,2471.277,13.29,0.059,160.4
2023-03-02T02:52:03,42.805,6.029,0.033,-0.051,-0.039,105.0,105.0,103.0,13.4,1505.2,319.4,-0.8,1.8,2471.288,13.29,0.06,147.1
2023-03-02T02:55:03,42.805,6.029,0.018,-0.037,-0.015,107.0,105.0,104.0,13.4,1505.2,324.0,-0.7,1.8,2471.231,13.29,0.041,154.1
2023-03-02T02:58:03,42.805,6.029,0.027,-0.029,0.01,106.0,105.0,104.0,13.4,1505.2,326.3,-0.8,1.8,2471.285,13.29,0.039,137.0
2023-03-02T03:04:03,42.805,6.029,0.027,-0.015,-0.025,105.0,105.0,104.0,13.4,1505.2,333.4,-0.8,1.8,2471.348,13.28,0.03,119.1
2023-03-02T03:07:03,42.805,6.029,0.011,-0.041,0.008,106.0,105.0,104.0,13.4,1505.2,340.9,-0.8,1.8,2471.304,13.28,0.042,165.0
2023-03-02T03:10:03,42.805,6.029,0.03,-0.033,-0.021,107.0,105.0,104.0,13.4,1505.2,324.6,-0.8,1.8,2471.354,13.28,0.044,137.7
2023-03-02T03:13:03,42.805,6.029,0.0,-0.039,-0.016,106.0,105.0,104.0,13.4,1505.2,318.7,-0.8,1.8,2471.326,13.28,0.039,180.0
2023-03-02T03:16:03,42.805,6.029,0.007,-0.027,-0.044,105.0,106.0,104.0,13.4,1505.2,327.3,-0.8,1.8,2471.32,13.28,0.027,165.5
2023-03-02T03:19:03,42.805,6.029,0.02,-0.037,-0.024,108.0,106.0,104.0,13.4,1505.2,323.6,-0.7,1.8,2471.33,13.28,0.042,151.6
2023-03-02T03:22:03,42.805,6.029,0.012,-0.043,-0.026,107.0,107.0,103.0,13.4,1505.2,321.0,-0.7,1.8,2471.295,13.28,0.044,164.4
2023-03-02T03:25:03,42.805,6.029,0.021,-0.05,0.01,106.0,106.0,104.0,13.4,1505.2,334.4,-0.8,1.8,2471.321,13.28,0.054,157.2
2023-03-02T03:28:03,42.805,6.029,0.0,-0.055,-0.046,104.0,105.0,104.0,13.4,1505.2,332.6,-0.8,1.8,2471.292,13.29,0.055,180.0
2023-03-02T03:31:03,42.805,6.029,0.018,-0.037,-0.027,106.0,106.0,104.0,13.4,1505.2,328.3,-0.7,1.8,2471.314,13.29,0.041,154.1
2023-03-02T03:34:03,42.805,6.029,-0.014,-0.048,-0.033,106.0,105.0,104.0,13.3,1505.2,335.9,-0.8,1.8,2471.306,13.29,0.05,196.3
2023-03-02T03:37:03,42.805,6.029,0.024,-0.044,-0.04,106.0,105.0,104.0,13.3,1505.2,330.2,-0.8,1.8,2471.311,13.29,0.05,151.4
2023-03-02T03:40:03,42.805,6.029,0.012,-0.041,-0.011,105.0,106.0,104.0,13.4,1505.2,326.0,-0.7,1.8,2471.313,13.29,0.042,163.7
2023-03-02T03:43:03,42.805,6.029,0.008,-0.032,-0.032,106.0,105.0,103.0,13.3,1505.2,319.4,-0.8,1.8,2471.296,13.29,0.032,166.0
2023-03-02T03:46:03,42.805,6.029,0.014,-0.059,-0.02,106.0,104.0,105.0,13.4,1505.2,330.0,-0.8,1.8,2471.329,13.29,0.06,166.7
2023-03-02T03:49:03,42.805,6.029,0.031,-0.035,-0.002,107.0,104.0,105.0,13.4,1505.2,324.2,-0.7,1.8,2471.296,13.29,0.046,138.5
2023-03-02T03:52:03,42.805,6.029,0.011,-0.043,-0.027,106.0,105.0,104.0,13.4,1505.2,325.6,-0.8,1.8,2471.287,13.29,0.044,165.7
2023-03-02T03:55:03,42.805,6.029,0.038,-0.036,-0.015,105.0,105.0,105.0,13.4,1505.2,315.5,-0.8,1.8,2471.289,13.29,0.052,133.5
2023-03-02T03:58:03,42.805,6.029,0.012,-0.035,-0.01,104.0,106.0,105.0,13.3,1505.2,338.2,-0.7,1.8,2471.304,13.29,0.037,161.1
2023-03-02T04:04:03,42.805,6.029,-0.009,-0.031,-0.042,107.0,104.0,104.0,13.3,1505.2,326.3,-0.8,1.8,2471.358,13.28,0.032,196.2
2023-03-02T04:07:03,42.805,6.029,0.007,-0.048,-0.02,107.0,105.0,105.0,13.4,1505.2,326.3,-0.7,1.8,2471.33,13.28,0.048,171.7
2023-03-02T04:10:03,42.805,6.029,0.024,-0.044,-0.01,106.0,106.0,104.0,13.3,1505.2,318.6,-0.8,1.8,2471.384,13.28,0.05,151.4
2023-03-02T04:13:03,42.805,6.029,0.011,-0.032,-0.026,107.0,105.0,104.0,13.3,1505.2,322.4,-0.8,1.8,2471.361,13.28,0.033,161.0
2023-03-02T04:16:03,42.805,6.029,0.036,-0.03,-0.002,107.0,106.0,105.0,13.4,1505.2,323.3,-0.7,1.8,2471.334,13.28,0.046,129.8
2023-03-02T04:19:03,42.805,6.029,0.019,-0.041,-0.01,106.0,106.0,104.0,13.4,1505.2,321.0,-0.8,1.8,2471.356,13.28,0.045,155.1
2023-03-02T04:22:03,42.805,6.029,0.003,-0.056,-0.032,106.0,107.0,104.0,13.4,1505.2,335.9,-0.8,1.8,2471.379,13.29,0.056,176.9
2023-03-02T04:25:03,42.805,6.029,0.04,-0.042,-0.033,106.0,106.0,104.0,13.4,1505.2,322.0,-0.8,1.8,2471.354,13.29,0.057,136.4
2023-03-02T04:28:03,42.805,6.029,0.044,-0.04,0.005,106.0,105.0,104.0,13.4,1505.2,316.1,-0.8,1.8,2471.327,13.29,0.059,132.3
2023-03-02T04:31:03,42.805,6.029,0.009,-0.044,-0.042,105.0,107.0,105.0,13.3,1505.2,327.4,-0.7,1.8,2471.293,13.29,0.044,168.4
2023-03-02T04:34:03,42.805,6.029,0.012,-0.052,-0.068,106.0,106.0,104.0,13.4,1505.2,331.4,-0.7,1.8,2471.325,13.29,0.053,167.0
2023-03-02T04:37:03,42.805,6.029,0.025,-0.034,-0.017,107.0,106.0,105.0,13.3,1505.2,317.5,-0.7,1.8,2471.292,13.29,0.042,143.7
2023-03-02T04:40:03,42.805,6.029,0.021,-0.061,-0.032,106.0,107.0,104.0,13.3,1505.2,333.4,-0.8,1.8,2471.339,13.29,0.064,161.0
2023-03-02T04:43:03,42.805,6.029,0.044,-0.048,-0.021,107.0,106.0,105.0,13.4,1505.2,321.0,-0.7,1.8,2471.356,13.29,0.065,137.5
2023-03-02T04:46:03,42.805,6.029,0.041,-0.04,-0.009,106.0,106.0,105.0,13.4,1505.2,317.1,-0.8,1.8,2471.318,13.29,0.057,134.3
2023-03-02T04:49:03,42.805,6.029,0.012,-0.036,-0.01,107.0,106.0,105.0,13.4,1505.2,318.2,-0.7,1.8,2471.304,13.29,0.037,161.6
2023-03-02T04:52:03,42.805,6.029,0.021,-0.036,-0.017,108.0,107.0,105.0,13.4,1505.2,322.6,-0.8,1.8,2471.32,13.29,0.041,149.7
2023-03-02T04:55:03,42.805,6.029,0.022,-0.05,-0.043,106.0,105.0,104.0,13.4,1505.2,323.9,-0.7,1.8,2471.306,13.29,0.054,156.3
2023-03-02T04:58:03,42.805,6.029,0.031,-0.029,-0.004,106.0,106.0,104.0,13.3,1505.2,325.0,-0.8,1.8,2471.341,13.29,0.042,133.1
2023-03-02T05:04:03,42.805,6.029,0.034,-0.027,0.0,107.0,106.0,104.0,13.3,1505.2,322.5,-0.8,1.8,2471.354,13.28,0.043,128.5
2023-03-02T05:07:03,42.805,6.029,0.012,-0.051,-0.007,107.0,106.0,104.0,13.4,1505.2,322.5,-0.8,1.8,2471.337,13.28,0.052,166.8
2023-03-02T05:10:03,42.805,6.029,0.026,-0.049,-0.04,106.0,106.0,105.0,13.4,1505.2,327.7,-0.7,1.8,2471.343,13.28,0.055,152.1
2023-03-02T05:13:03,42.805,6.029,0.02,-0.044,0.003,107.0,107.0,104.0,13.3,1505.2,329.8,-0.7,1.8,2471.325,13.28,0.048,155.6
2023-03-02T05:16:03,42.805,6.029,0.039,-0.052,-0.047,107.0,107.0,104.0,13.3,1505.2,323.1,-0.8,1.8,2471.342,13.28,0.064,143.1
2023-03-02T05:19:03,42.805,6.029,0.017,-0.023,0.0,108.0,106.0,105.0,13.4,1505.2,319.9,-0.7,1.8,2471.362,13.29,0.028,143.5
2023-03-02T05:22:03,42.805,6.029,0.009,-0.056,-0.027,106.0,107.0,104.0,13.4,1505.2,337.2,-0.8,1.8,2471.339,13.29,0.056,170.9
2023-03-02T05:25:03,42.805,6.029,0.016,-0.036,-0.013,106.0,106.0,104.0,13.4,1505.2,323.1,-0.8,1.8,2471.332,13.29,0.039,156.0
2023-03-02T05:28:03,42.805,6.029,0.04,-0.055,-0.033,106.0,106.0,105.0,13.4,1505.2,321.0,-0.8,1.8,2471.332,13.29,0.068,144.0
2023-03-02T05:31:03,42.805,6.029,0.019,-0.029,-0.006,107.0,106.0,105.0,13.4,1505.2,333.4,-0.8,1.8,2471.316,13.29,0.034,146.8
2023-03-02T05:34:03,42.805,6.029,0.024,-0.047,-0.018,108.0,105.0,103.0,13.4,1505.2,324.3,-0.8,1.8,2471.262,13.29,0.052,153.0
2023-03-02T05:37:03,42.805,6.029,0.0,-0.054,-0.023,105.0,105.0,105.0,13.4,1505.2,341.5,-0.8,1.8,2471.297,13.29,0.053,180.0
2023-03-02T05:40:03,42.805,6.029,0.032,-0.04,-0.03,107.0,106.0,105.0,13.4,1505.2,318.6,-0.8,1.8,2471.312,13.29,0.051,141.3
2023-03-02T05:43:03,42.805,6.029,0.042,-0.058,-0.014,107.0,106.0,105.0,13.4,1505.2,321.6,-0.7,1.8,2471.318,13.29,0.071,144.1
2023-03-02T05:46:03,42.805,6.029,0.03,-0.042,0.018,107.0,106.0,104.0,13.4,1505.2,322.6,-0.8,1.8,2471.34,13.29,0.051,144.5
2023-03-02T05:49:03,42.805,6.029,0.032,-0.047,-0.016,108.0,106.0,105.0,13.4,1505.2,321.7,-0.8,1.8,2471.323,13.29,0.056,145.8
2023-03-02T05:52:03,42.805,6.029,0.033,-0.032,0.009,107.0,106.0,106.0,13.4,1505.2,325.4,-0.8,1.8,2471.314,13.29,0.045,134.1
2023-03-02T05:55:03,42.805,6.029,0.015,-0.065,-0.055,107.0,106.0,105.0,13.4,1505.2,338.7,-0.8,1.8,2471.315,13.29,0.066,167.0
2023-03-02T05:58:03,42.805,6.029,0.024,-0.046,-0.03,107.0,106.0,105.0,13.4,1505.2,338.0,-0.8,1.8,2471.327,13.29,0.051,152.4
2023-03-02T06:04:03,42.805,6.029,0.026,-0.022,-0.002,107.0,106.0,106.0,13.4,1505.2,319.1,-0.8,1.8,2471.356,13.28,0.034,130.2
2023-03-02T06:07:03,42.805,6.029,0.018,-0.031,-0.017,107.0,108.0,105.0,13.4,1505.2,327.9,-0.8,1.8,2471.365,13.28,0.035,149.9
2023-03-02T06:10:03,42.805,6.029,0.025,-0.045,-0.042,109.0,106.0,105.0,13.3,1505.2,331.8,-0.8,1.8,2471.357,13.28,0.051,150.9
2023-03-02T06:13:03,42.805,6.029,0.008,-0.041,-0.019,107.0,110.0,104.0,13.4,1505.2,321.3,-0.8,1.8,2471.336,13.28,0.041,169.0
2023-03-02T06:16:03,42.805,6.029,0.051,-0.058,-0.011,107.0,107.0,105.0,13.4,1505.2,321.0,-0.8,1.8,2471.366,13.29,0.077,138.7
2023-03-02T06:19:03,42.805,6.029,0.03,-0.024,-0.003,107.0,106.0,105.0,13.4,1505.2,318.0,-0.8,1.8,2471.333,13.29,0.038,128.7
2023-03-02T06:22:03,42.805,6.029,0.011,-0.045,-0.033,106.0,107.0,105.0,13.3,1505.2,341.5,-0.8,1.8,2471.333,13.29,0.046,166.3
2023-03-02T06:25:03,42.805,6.029,0.04,-0.027,-0.019,107.0,106.0,105.0,13.3,1505.2,322.3,-0.8,1.8,2471.315,13.29,0.048,124.0
2023-03-02T06:28:03,42.805,6.029,0.032,-0.038,-0.03,107.0,106.0,105.0,13.4,1505.2,329.3,-0.7,1.8,2471.277,13.29,0.049,139.9
2023-03-02T06:31:03,42.805,6.029,0.033,-0.048,-0.024,107.0,106.0,105.0,13.3,1505.2,329.8,-0.8,1.8,2471.314,13.29,0.058,145.5
2023-03-02T06:34:03,42.805,6.029,0.017,-0.032,-0.009,108.0,106.0,105.0,13.3,1505.2,338.2,-0.8,1.8,2471.319,13.29,0.036,152.0
2023-03-02T06:37:03,42.805,6.029,0.024,-0.046,-0.007,108.0,107.0,104.0,13.4,1505.2,339.5,-0.7,1.8,2471.302,13.29,0.051,152.4
2023-03-02T06:40:03,42.805,6.029,0.03,-0.053,-0.026,108.0,107.0,105.0,13.3,1505.2,335.5,-0.8,1.8,2471.313,13.29,0.06,150.5
2023-03-02T06:43:03,42.805,6.029,0.056,-0.035,0.001,107.0,106.0,105.0,13.3,1505.2,317.4,-0.7,1.8,2471.274,13.29,0.066,122.0
2023-03-02T06:46:03,42.805,6.029,0.027,-0.035,0.013,107.0,107.0,105.0,13.4,1505.2,331.1,-0.8,1.8,2471.287,13.29,0.044,142.3
2023-03-02T06:49:03,42.805,6.029,0.04,-0.037,0.011,107.0,106.0,105.0,13.4,1505.2,329.3,-0.8,1.8,2471.282,13.29,0.054,132.8
2023-03-02T06:52:03,42.805,6.029,0.027,-0.042,-0.012,107.0,105.0,105.0,13.3,1505.2,332.1,-0.8,1.8,2471.322,13.29,0.049,147.3
2023-03-02T06:55:03,42.805,6.029,0.025,-0.031,-0.005,107.0,107.0,105.0,13.4,1505.2,329.8,-0.8,1.8,2471.296,13.29,0.039,141.1
2023-03-02T06:58:03,42.805,6.029,0.021,-0.02,-0.021,107.0,106.0,104.0,13.3,1505.2,325.0,-0.7,1.8,2471.313,13.29,0.028,133.6
2023-03-02T07:04:03,42.805,6.029,0.013,-0.04,0.001,107.0,107.0,105.0,13.4,1505.2,336.6,-0.8,1.8,2471.352,13.28,0.042,162.0
2023-03-02T07:07:03,42.805,6.029,0.036,-0.024,-0.006,108.0,107.0,105.0,13.4,1505.2,321.7,-0.8,1.8,2471.32,13.28,0.043,123.7
2023-03-02T07:10:03,42.805,6.029,0.028,-0.018,-0.024,108.0,106.0,105.0,13.3,1505.2,331.3,-0.8,1.8,2471.311,13.28,0.033,122.7
2023-03-02T07:13:03,42.805,6.029,0.037,-0.044,-0.034,107.0,107.0,105.0,13.4,1505.2,328.3,-0.8,1.8,2471.323,13.29,0.057,139.9
2023-03-02T07:16:03,42.805,6.029,0.012,-0.039,-0.023,107.0,107.0,106.0,13.4,1505.2,332.1,-0.7,1.8,2471.331,13.29,0.04,162.9
2023-03-02T07:19:03,42.805,6.029,0.054,-0.042,0.0,108.0,106.0,106.0,13.4,1505.2,319.4,-0.8,1.8,2471.308,13.29,0.068,127.9
2023-03-02T07:22:03,42.805,6.029,0.002,-0.03,-0.016,106.0,107.0,105.0,13.4,1505.2,330.1,-0.8,1.8,2471.304,13.29,0.03,176.2
2023-03-02T07:25:03,42.805,6.029,0.03,-0.032,0.007,107.0,108.0,104.0,13.4,1505.2,320.4,-0.8,1.8,2471.279,13.29,0.043,136.9
2023-03-02T07:28:03,42.805,6.029,0.007,-0.038,-0.016,107.0,107.0,105.0,13.4,1505.2,323.4,-0.8,1.8,2471.281,13.29,0.038,169.6
2023-03-02T07:31:03,42.805,6.029,0.007,-0.036,-0.001,107.0,106.0,105.0,13.4,1505.2,341.2,-0.8,1.8,2471.302,13.29,0.036,169.0
2023-03-02T07:34:03,42.805,6.029,0.008,-0.044,-0.006,109.0,109.0,104.0,13.4,1505.2,334.8,-0.8,1.9,2471.339,13.29,0.044,169.7
2023-03-02T07:37:03,42.805,6.029,0.013,-0.035,-0.022,108.0,107.0,104.0,13.4,1505.2,337.8,-0.7,1.8,2471.292,13.29,0.037,159.6
2023-03-02T07:40:03,42.805,6.029,0.026,-0.03,-0.017,107.0,107.0,104.0,13.3,1505.2,330.7,-0.8,1.8,2471.341,13.29,0.039,139.1
2023-03-02T07:43:03,42.805,6.029,0.035,-0.045,-0.03,108.0,105.0,105.0,13.3,1505.2,334.8,-0.8,1.8,2471.269,13.29,0.057,142.1
2023-03-02T07:46:03,42.805,6.029,0.052,-0.031,0.008,107.0,107.0,104.0,13.4,1505.2,315.0,-0.7,1.8,2471.314,13.29,0.06,120.8
2023-03-02T07:49:03,42.805,6.029,0.045,-0.033,-0.019,107.0,107.0,104.0,13.4,1505.2,323.1,-0.8,1.8,2471.299,13.29,0.055,126.3
2023-03-02T07:52:03,42.805,6.029,0.015,-0.024,-0.016,106.0,106.0,105.0,13.4,1505.2,334.6,-0.7,1.8,2471.308,13.29,0.028,148.0
2023-03-02T07:55:03,42.805,6.029,0.029,-0.045,-0.035,107.0,106.0,105.0,13.4,1505.2,331.0,-0.8,1.8,2471.284,13.29,0.053,147.2
2023-03-02T07:58:03,42.805,6.029,0.028,-0.031,-0.045,108.0,106.0,105.0,13.4,1505.2,322.2,-0.8,1.8,2471.268,13.29,0.041,137.9
2023-03-02T08:04:03,42.805,6.029,0.028,-0.026,-0.001,106.0,107.0,108.0,13.4,1505.2,318.6,-0.8,1.8,2471.318,13.28,0.038,132.9
2023-03-02T08:07:03,42.805,6.029,0.001,-0.029,-0.011,107.0,106.0,105.0,13.3,1505.2,324.8,-0.8,1.8,2471.294,13.28,0.029,178.0
2023-03-02T08:10:03,42.805,6.029,0.03,-0.026,0.004,109.0,107.0,104.0,13.4,1505.2,326.0,-0.8,1.8,2471.328,13.29,0.039,130.9
2023-03-02T08:13:03,42.805,6.029,0.026,-0.035,-0.016,108.0,106.0,105.0,13.3,1505.2,317.8,-0.8,1.8,2471.327,13.29,0.043,143.4
2023-03-02T08:16:03,42.805,6.029,0.034,-0.007,-0.031,108.0,107.0,105.0,13.4,1505.2,330.7,-0.7,1.8,2471.34,13.29,0.034,101.6
2023-03-02T08:19:03,42.805,6.029,0.031,-0.022,-0.009,108.0,108.0,104.0,13.3,1505.2,324.6,-0.8,1.8,2471.321,13.29,0.038,125.4
2023-03-02T08:22:03,42.805,6.029,0.033,-0.043,0.0,109.0,107.0,104.0,13.4,1505.2,326.7,-0.8,1.8,2471.309,13.29,0.054,142.5
2023-03-02T08:25:03,42.805,6.029,0.019,-0.044,0.011,107.0,107.0,105.0,13.3,1505.2,330.2,-0.7,1.8,2471.268,13.29,0.047,156.6
2023-03-02T08:28:03,42.805,6.029,0.049,-0.034,0.004,107.0,106.0,105.0,13.3,1505.2,331.2,-0.8,1.8,2471.26,13.29,0.059,124.8
2023-03-02T08:31:03,42.805,6.029,0.044,-0.05,-0.016,109.0,106.0,105.0,13.4,1505.2,320.4,-0.8,1.8,2471.293,13.29,0.066,138.7
2023-03-02T08:34:03,42.805,6.029,0.016,-0.027,-0.027,107.0,106.0,105.0,13.4,1505.2,329.2,-0.8,1.8,2471.258,13.29,0.031,149.3
2023-03-02T08:37:03,42.805,6.029,0.022,-0.03,-0.006,107.0,106.0,106.0,13.4,1505.2,330.1,-0.7,1.8,2471.266,13.29,0.037,143.7
2023-03-02T08:40:03,42.805,6.029,0.02,-0.026,-0.049,108.0,107.0,105.0,13.4,1505.2,333.4,-0.7,1.8,2471.301,13.29,0.032,142.4
2023-03-02T08:43:03,42.805,6.029,0.021,-0.02,-0.008,108.0,107.0,105.0,13.4,1505.2,322.0,-0.8,1.8,2471.312,13.29,0.028,133.6
2023-03-02T08:46:03,42.805,6.029,0.035,-0.033,-0.018,107.0,108.0,105.0,13.4,1505.2,324.4,-0.7,1.8,2471.284,13.29,0.048,133.3
2023-03-02T08:49:03,42.805,6.029,0.036,-0.038,-0.013,108.0,107.0,106.0,13.4,1505.2,322.9,-0.8,1.8,2471.307,13.29,0.052,136.5
2023-03-02T08:52:03,42.805,6.029,0.026,-0.053,-0.024,108.0,107.0,105.0,13.4,1505.2,329.7,-0.8,1.8,2471.26,13.29,0.059,153.9
2023-03-02T08:55:03,42.805,6.029,0.047,-0.04,-0.04,107.0,107.0,106.0,13.4,1505.2,325.4,-0.8,1.8,2471.269,13.29,0.061,130.4
2023-03-02T08:58:03,42.805,6.029,0.03,-0.033,-0.043,108.0,107.0,106.0,13.4,1505.2,321.7,-0.8,1.8,2471.245,13.29,0.044,137.7
2023-03-02T09:04:03,42.805,6.029,0.01,-0.052,-0.05,108.0,108.0,106.0,13.3,1505.2,329.7,-0.8,1.8,2471.295,13.28,0.052,169.1
2023-03-02T09:07:03,42.805,6.029,0.006,-0.039,0.011,108.0,106.0,105.0,13.4,1505.2,340.0,-0.8,1.8,2471.322,13.28,0.039,171.3
2023-03-02T09:10:03,42.805,6.029,0.03,-0.034,-0.007,108.0,107.0,106.0,13.4,1505.2,320.5,-0.8,1.8,2471.287,13.29,0.045,138.6
2023-03-02T09:13:03,42.805,6.029,0.018,-0.022,-0.031,107.0,108.0,106.0,13.4,1505.2,325.7,-0.8,1.8,2471.287,13.29,0.028,140.7
2023-03-02T09:16:03,42.805,6.029,0.047,-0.01,0.015,110.0,107.0,105.0,13.3,1505.2,328.3,-0.8,1.8,2471.283,13.29,0.048,102.0
2023-03-02T09:19:03,42.805,6.029,0.034,-0.04,-0.009,110.0,107.0,106.0,13.4,1505.2,330.7,-0.7,1.8,2471.294,13.29,0.052,139.6
2023-03-02T09:22:03,42.805,6.029,0.027,-0.025,-0.013,108.0,107.0,105.0,13.4,1505.2,317.2,-0.8,1.8,2471.294,13.29,0.036,132.8
2023-03-02T09:25:03,42.805,6.029,0.037,-0.039,-0.001,109.0,107.0,105.0,13.4,1505.2,319.9,-0.8,1.8,2471.306,13.29,0.053,136.5
2023-03-02T09:28:03,42.805,6.029,0.022,-0.04,-0.03,107.0,108.0,105.0,13.4,1505.2,321.2,-0.8,1.8,2471.279,13.29,0.045,151.2
2023-03-02T09:31:03,42.805,6.029,0.019,-0.04,-0.001,108.0,107.0,105.0,13.4,1505.2,323.9,-0.8,1.8,2471.268,13.29,0.044,154.6
2023-03-02T09:34:03,42.805,6.029,0.053,-0.037,-0.016,107.0,107.0,105.0,13.4,1505.2,322.2,-0.8,1.8,2471.289,13.29,0.064,124.9
2023-03-02T09:37:03,42.805,6.029,0.016,-0.062,-0.042,109.0,106.0,105.0,13.4,1505.2,338.9,-0.8,1.8,2471.261,13.29,0.064,165.5
2023-03-02T09:40:03,42.805,6.029,0.02,-0.019,-0.001,108.0,107.0,105.0,13.4,1505.2,322.2,-0.8,1.8,2471.252,13.29,0.027,133.5
2023-03-02T09:43:03,42.805,6.029,0.035,-0.019,-0.017,108.0,107.0,105.0,13.4,1505.2,315.5,-0.8,1.8,2471.266,13.29,0.039,118.5
2023-03-02T09:46:03,42.805,6.029,0.025,-0.031,-0.001,108.0,107.0,105.0,13.4,1505.2,334.6,-0.8,1.8,2471.249,13.29,0.039,141.1
2023-03-02T09:49:03,42.805,6.029,0.023,-0.029,-0.006,109.0,108.0,105.0,13.4,1505.2,337.6,-0.8,1.8,2471.247,13.29,0.037,141.6
2023-03-02T09:52:03,42.805,6.029,0.012,-0.031,-0.018,107.0,107.0,106.0,13.4,1505.2,319.8,-0.7,1.8,2471.281,13.29,0.033,158.8